TimeMDT,TemperatureF,Dew PointF,Humidity,Sea Level PressureIn,VisibilityMPH,Wind Direction,Wind SpeedMPH,Gust SpeedMPH,PrecipitationIn,Events,Conditions,WindDirDegrees,DateUTC
12:53 AM,63.0,51.1,65,29.86,10.0,Calm,Calm,-,N/A,,Clear,0,2013-08-27 06:53:00
1:53 AM,59.0,48.9,69,29.87,10.0,WSW,4.6,-,N/A,,Clear,240,2013-08-27 07:53:00
2:53 AM,60.1,46.9,62,29.87,10.0,WSW,3.5,-,N/A,,Clear,240,2013-08-27 08:53:00
3:53 AM,60.1,46.0,60,29.88,10.0,Calm,Calm,-,N/A,,Clear,0,2013-08-27 09:53:00
4:53 AM,57.9,46.9,67,29.90,10.0,SSW,4.6,-,N/A,,Clear,200,2013-08-27 10:53:00
5:53 AM,62.1,45.0,53,29.90,10.0,West,6.9,-,N/A,,Clear,260,2013-08-27 11:53:00
6:53 AM,60.1,46.0,60,29.91,10.0,WSW,5.8,-,N/A,,Clear,250,2013-08-27 12:53:00
7:53 AM,60.1,46.9,62,29.93,10.0,Calm,Calm,-,N/A,,Clear,0,2013-08-27 13:53:00
8:53 AM,63.0,48.0,58,29.95,10.0,Calm,Calm,-,N/A,,Clear,0,2013-08-27 14:53:00
9:53 AM,68.0,48.0,49,29.95,10.0,SW,3.5,-,N/A,,Clear,220,2013-08-27 15:53:00
10:53 AM,72.0,48.0,43,29.94,10.0,Calm,Calm,-,N/A,,Clear,0,2013-08-27 16:53:00
11:53 AM,77.0,48.0,36,29.93,10.0,Calm,Calm,-,N/A,,Clear,0,2013-08-27 17:53:00
12:53 PM,81.0,46.9,30,29.90,10.0,Variable,3.5,-,N/A,,Clear,0,2013-08-27 18:53:00
1:53 PM,82.9,46.0,27,29.87,10.0,Calm,Calm,-,N/A,,Clear,0,2013-08-27 19:53:00
2:53 PM,86.0,50.0,29,29.85,10.0,SSE,5.8,-,N/A,,Clear,160,2013-08-27 20:53:00
3:53 PM,89.1,46.9,23,29.81,10.0,South,3.5,-,N/A,,Clear,170,2013-08-27 21:53:00
4:53 PM,91.9,39.0,16,29.78,10.0,North,4.6,-,N/A,,Clear,10,2013-08-27 22:53:00
5:53 PM,93.0,37.0,14,29.74,10.0,Variable,6.9,-,N/A,,Clear,0,2013-08-27 23:53:00
6:53 PM,91.0,43.0,19,29.73,10.0,North,6.9,-,N/A,,Clear,10,2013-08-28 00:53:00
7:53 PM,89.1,44.1,21,29.71,10.0,North,3.5,-,N/A,,Clear,10,2013-08-28 01:53:00
8:53 PM,84.0,44.1,25,29.71,10.0,Calm,Calm,-,N/A,,Partly Cloudy,0,2013-08-28 02:53:00
9:53 PM,77.0,52.0,42,29.73,10.0,NW,3.5,-,N/A,,Clear,310,2013-08-28 03:53:00
10:53 PM,73.9,51.1,45,29.73,10.0,Calm,Calm,-,N/A,,Partly Cloudy,0,2013-08-28 04:53:00
11:53 PM,71.1,52.0,51,29.73,10.0,WSW,5.8,-,N/A,,Clear,250,2013-08-28 05:53:00